Volver al catálogo

SL-6 R/B(2)

LostHEO
NORAD 26045·ROCKET BODY·🇷🇺 Russia

Lanzado Dec 27, 1999 desde Plesetsk Cosmodrome

Loading…

Próximos Pases (próximas 24 horas)

TLE

ObsoletoSource: Space-Track

Época: Aug 8, 2026, 02:45 UTC

1 26045U 99073D   26220.11514628  .00070531  12492-5  72483-3 0  9991
2 26045  62.2881 110.8258 7408249 207.2242  77.7248  2.17231441198260

Sigue SL-6 R/B(2) en tiempo real con AllMySat

Download on the App Store